CW1035 Weather Reports


Display with metric or nautical units.
time (UTC)temp
F
wind
direction
speed
MPH
gust
MPH
rain 1hr
in
rain 24hr
in
rain mn
in
humidity
%
barometer
mb
20260502163200 53 287 3.0 9.0 0.00 0.00 0.00 89 1018.8
20260502162700 53 283 4.0 9.0 0.00 0.00 0.00 89 1018.8
20260502162200 52 267 6.0 9.0 0.00 0.00 0.00 90 1018.7
20260502161700 52 271 4.0 9.0 0.00 0.00 0.00 90 1018.7
20260502161200 52 295 4.0 10.0 0.00 0.00 0.00 91 1018.7
20260502160659 52 261 2.0 10.0 0.00 0.00 0.00 91 1018.6
20260502160200 51 307 7.0 9.0 0.00 0.00 0.00 92 1018.7
20260502152159 50 284 2.0 7.0 0.00 0.00 0.00 97 1018.6
20260502151159 49 274 4.0 6.0 0.00 0.00 0.00 97 1018.5
20260502150659 49 279 3.0 6.0 0.00 0.00 0.00 97 1018.6
20260502150159 49 295 3.0 5.0 0.00 0.00 0.00 97 1018.6
20260502130657 47 132 0.0 1.0 0.00 0.00 0.00 97 1018.2
20260502130157 47 132 0.0 3.0 0.00 0.00 0.00 97 1018.3
20260502123656 47 158 1.0 2.0 0.00 0.00 0.00 96 1018.2
20260502123156 47 212 0.0 2.0 0.00 0.00 0.00 96 1018.2
20260502122656 47 265 0.0 1.0 0.00 0.00 0.00 96 1018.2
20260502122156 47 265 0.0 0.0 0.00 0.00 0.00 97 1018.2
20260502121656 47 265 0.0 1.0 0.00 0.00 0.00 97 1018.1
20260502121156 47 265 0.0 1.0 0.00 0.00 0.00 97 1018.1
20260502120656 47 269 0.0 1.0 0.00 0.00 0.00 97 1018.2
20260502120155 47 269 0.0 1.0 0.00 0.00 0.00 96 1018.2
20260502115655 47 269 0.0 1.0 0.00 0.00 0.00 96 1018.1
20260502115156 47 269 0.0 2.0 0.00 0.00 0.00 96 1018.0
20260502114655 47 269 1.0 4.0 0.00 0.00 0.00 96 1018.0
20260502114155 47 276 2.0 4.0 0.00 0.00 0.00 96 1017.9
20260502113656 47 302 2.0 4.0 0.00 0.00 0.00 96 1017.8
20260502113155 47 268 1.0 3.0 0.00 0.00 0.00 96 1017.9
20260502112655 47 292 1.0 3.0 0.00 0.00 0.00 95 1017.6
20260502112155 47 292 1.0 3.0 0.00 0.00 0.00 95 1017.5
20260502111655 47 291 1.0 2.0 0.00 0.00 0.00 95 1017.6
20260502111155 47 291 0.0 3.0 0.00 0.00 0.00 95 1017.7
20260502110655 47 291 1.0 3.0 0.00 0.00 0.00 95 1017.6
20260502110155 47 291 2.0 3.0 0.00 0.00 0.00 95 1017.7
20260502105654 47 291 0.0 0.0 0.00 0.00 0.00 95 1017.8
20260502105155 48 291 0.0 0.0 0.00 0.00 0.00 95 1017.8
20260502104655 48 291 0.0 0.0 0.00 0.00 0.00 95 1017.8
20260502104154 48 291 0.0 0.0 0.00 0.00 0.00 95 1017.9
20260502103154 48 291 0.0 4.0 0.00 0.00 0.00 94 1017.8
20260502102654 48 297 3.0 4.0 0.00 0.00 0.00 94 1017.9
20260502102154 48 271 2.0 4.0 0.00 0.00 0.00 94 1017.9
20260502101154 48 285 4.0 4.0 0.00 0.00 0.00 93 1017.9
20260502100654 49 274 3.0 3.0 0.00 0.00 0.00 93 1017.8
20260502100154 49 274 0.0 2.0 0.00 0.00 0.00 92 1017.8
20260502091153 49 244 0.0 0.0 0.00 0.00 0.00 92 1017.6
20260502090653 49 244 0.0 0.0 0.00 0.00 0.00 92 1017.5
20260502090153 49 244 0.0 0.0 0.00 0.00 0.00 92 1017.5
20260502071151 51 279 4.0 10.0 0.00 0.00 0.00 89 1017.2
20260502070651 51 299 6.0 10.0 0.00 0.00 0.00 89 1017.1
20260502070151 51 258 7.0 10.0 0.00 0.00 0.00 88 1017.2
20260502065651 51 259 8.0 11.0 0.00 0.00 0.00 88 1017.1
20260502065151 51 243 5.0 11.0 0.00 0.00 0.00 88 1017.2
20260502064651 51 282 7.0 9.0 0.00 0.00 0.00 88 1017.1
20260502064151 52 269 1.0 11.0 0.00 0.00 0.00 88 1017.0
20260502063651 52 273 4.0 11.0 0.00 0.00 0.00 87 1017.0
20260502063151 52 288 6.0 10.0 0.00 0.00 0.00 87 1016.9
20260502062651 52 253 4.0 10.0 0.00 0.00 0.00 86 1016.9
20260502062150 52 276 5.0 9.0 0.00 0.00 0.00 85 1016.9
20260502061650 52 290 6.0 11.0 0.00 0.00 0.00 85 1016.9
20260502061150 52 277 3.0 11.0 0.00 0.00 0.00 85 1016.7
20260502060650 52 283 3.0 9.0 0.00 0.00 0.00 85 1016.9
20260502055650 52 274 5.0 12.0 0.00 0.00 0.00 85 1016.6
20260502055150 52 290 5.0 13.0 0.00 0.00 0.00 85 1016.6
20260502054650 52 261 2.0 13.0 0.00 0.00 0.00 85 1016.6
20260502054149 53 279 5.0 15.0 0.00 0.00 0.00 84 1016.7
20260502053649 53 257 7.0 15.0 0.00 0.00 0.00 84 1016.7
20260502052650 53 293 12.0 18.0 0.00 0.00 0.00 84 1016.5
20260502052149 53 284 6.0 18.0 0.00 0.00 0.00 84 1016.6
20260502051650 53 282 4.0 16.0 0.00 0.00 0.00 83 1016.6
20260502051149 53 325 5.0 16.0 0.00 0.00 0.00 83 1016.7
20260502050649 53 316 9.0 17.0 0.00 0.00 0.00 82 1016.6
20260502050149 53 291 11.0 17.0 0.00 0.00 0.00 82 1016.6
20260502045649 53 271 6.0 16.0 0.00 0.00 0.00 82 1016.6
20260502045149 53 253 8.0 16.0 0.00 0.00 0.00 81 1016.4
20260502044649 54 288 6.0 16.0 0.00 0.00 0.00 81 1016.7
20260502044149 54 335 10.0 17.0 0.00 0.00 0.00 80 1016.5
20260502043649 54 345 12.0 17.0 0.00 0.00 0.00 80 1016.4
20260502043149 54 297 6.0 15.0 0.00 0.00 0.00 80 1016.3
20260502042149 54 229 7.0 14.0 0.00 0.00 0.00 79 1016.3
20260502041648 54 239 5.0 16.0 0.00 0.00 0.00 79 1016.3
20260502041149 54 300 9.0 16.0 0.00 0.00 0.00 79 1016.2
20260502040648 54 286 4.0 14.0 0.00 0.00 0.00 79 1016.3
20260502040148 55 257 8.0 12.0 0.00 0.00 0.00 79 1016.2
20260502035648 55 271 3.0 12.0 0.00 0.00 0.00 78 1016.0
20260502035147 55 267 3.0 13.0 0.00 0.00 0.00 77 1016.0
20260502034648 55 300 7.0 13.0 0.00 0.00 0.00 77 1015.9
20260502034148 55 281 11.0 12.0 0.00 0.00 0.00 76 1016.0
20260502033147 56 254 5.0 13.0 0.00 0.00 0.00 75 1016.2
20260502032648 56 290 4.0 12.0 0.00 0.00 0.00 75 1016.1
20260502032148 56 280 3.0 14.0 0.00 0.00 0.00 74 1015.8
20260502031647 56 309 4.0 14.0 0.00 0.00 0.00 74 1015.9
20260502031147 56 264 2.0 12.0 0.00 0.00 0.00 74 1015.9
20260502030647 56 215 6.0 13.0 0.00 0.00 0.00 74 1015.7
20260502025147 56 240 4.0 14.0 0.00 0.00 0.00 74 1015.6
20260502024646 57 255 6.0 13.0 0.00 0.00 0.00 73 1015.6
20260502023646 57 252 4.0 14.0 0.00 0.00 0.00 73 1015.5
20260502023146 57 256 14.0 19.0 0.00 0.00 0.00 73 1015.4
20260502022646 56 293 4.0 19.0 0.00 0.00 0.00 73 1015.5
20260502022146 56 258 4.0 16.0 0.00 0.00 0.00 76 1015.4
20260502021646 56 298 10.0 16.0 0.00 0.00 0.00 76 1015.4
20260502020646 56 308 5.0 13.0 0.00 0.00 0.00 76 1015.6
20260502020146 56 316 5.0 13.0 0.00 0.00 0.00 75 1015.6
20260502015646 56 300 7.0 12.0 0.00 0.00 0.00 75 1015.6
20260502015146 56 304 4.0 14.0 0.00 0.00 0.00 76 1015.5
20260502013146 56 231 4.0 17.0 0.00 0.00 0.00 78 1015.7
20260502012646 56 300 6.0 16.0 0.00 0.00 0.00 78 1015.7
20260502012145 57 262 8.0 16.0 0.00 0.00 0.00 77 1015.8
20260502011645 57 251 9.0 15.0 0.00 0.00 0.00 77 1015.7
20260502011145 57 326 4.0 15.0 0.00 0.00 0.00 78 1015.7
20260502010645 57 270 5.0 14.0 0.00 0.00 0.00 78 1015.8
20260502010145 57 262 4.0 13.0 0.00 0.00 0.00 80 1015.7
20260502005644 57 263 7.0 13.0 0.00 0.00 0.00 81 1015.8
20260502004645 56 309 5.0 13.0 0.00 0.00 0.00 80 1015.9
20260502003645 57 276 9.0 13.0 0.00 0.00 0.00 79 1016.0
20260502003144 57 276 5.0 12.0 0.00 0.00 0.00 79 1016.0
20260502002144 58 254 3.0 13.0 0.00 0.00 0.00 78 1016.1
20260502001644 58 255 11.0 13.0 0.00 0.00 0.00 76 1016.1
20260502001144 59 274 3.0 13.0 0.00 0.00 0.00 75 1016.2
20260502000644 59 262 3.0 13.0 0.00 0.00 0.00 75 1016.2
20260502000144 58 299 4.0 11.0 0.00 0.00 0.00 76 1016.0
20260501235644 58 257 4.0 14.0 0.00 0.00 0.00 76 1016.1
20260501235143 58 293 4.0 14.0 0.00 0.00 0.00 77 1016.0
20260501234644 58 288 8.0 13.0 0.00 0.00 0.00 76 1016.2
20260501233643 58 282 4.0 10.0 0.00 0.00 0.00 75 1016.3
20260501233144 58 269 4.0 12.0 0.00 0.00 0.00 75 1016.3
20260501232643 59 286 2.0 12.0 0.00 0.00 0.00 73 1016.3
20260501232143 59 299 6.0 11.0 0.00 0.00 0.00 72 1016.3
20260501231643 60 306 5.0 10.0 0.00 0.00 0.00 72 1016.4
20260501231143 60 269 5.0 10.0 0.00 0.00 0.00 72 1016.4
20260501230643 60 271 4.0 10.0 0.00 0.00 0.00 71 1016.5
20260501230143 60 268 3.0 10.0 0.00 0.00 0.00 72 1016.7
20260501225643 59 299 3.0 10.0 0.00 0.00 0.00 73 1016.7
20260501225142 59 270 2.0 8.0 0.00 0.00 0.00 74 1016.6
20260501224642 59 316 5.0 13.0 0.00 0.00 0.00 73 1016.7
20260501224142 59 264 6.0 13.0 0.00 0.00 0.00 72 1016.8
20260501223642 59 346 7.0 11.0 0.00 0.00 0.00 73 1016.8
20260501222642 60 257 2.0 10.0 0.00 0.00 0.00 70 1017.0
20260501221142 61 279 3.0 9.0 0.00 0.00 0.00 68 1017.1
20260501220641 61 278 6.0 10.0 0.00 0.00 0.00 69 1017.1
20260501220142 61 212 1.0 12.0 0.00 0.00 0.00 69 1017.1
20260501215641 61 259 4.0 12.0 0.00 0.00 0.00 68 1017.3
20260501215142 61 279 8.0 9.0 0.00 0.00 0.00 71 1017.3
20260501214642 60 266 2.0 10.0 0.00 0.00 0.00 71 1017.3
20260501214142 60 312 3.0 11.0 0.00 0.00 0.00 72 1017.4
20260501213642 59 296 4.0 11.0 0.00 0.00 0.00 72 1017.5
20260501212641 59 306 4.0 12.0 0.00 0.00 0.00 74 1017.4
20260501212141 59 323 9.0 11.0 0.00 0.00 0.00 74 1017.4
20260501211141 57 331 2.0 13.0 0.00 0.00 0.00 78 1017.4
20260501210640 57 285 9.0 15.0 0.00 0.00 0.00 79 1017.4
20260501210140 57 275 8.0 15.0 0.00 0.00 0.00 78 1017.4
20260501205640 57 265 5.0 12.0 0.00 0.00 0.00 79 1017.4
20260501204640 56 270 5.0 12.0 0.00 0.00 0.00 82 1017.4
20260501203640 56 318 9.0 14.0 0.00 0.00 0.00 82 1017.4
20260501203141 56 293 2.0 16.0 0.00 0.00 0.00 83 1017.4
20260501202640 55 253 7.0 16.0 0.00 0.00 0.00 84 1017.3
20260501202140 55 345 10.0 11.0 0.00 0.00 0.00 85 1017.5
20260501201640 54 269 9.0 12.0 0.00 0.00 0.00 85 1017.5
20260501201140 54 333 6.0 12.0 0.00 0.00 0.00 87 1017.5
20260501200640 53 270 2.0 11.0 0.00 0.00 0.00 87 1017.5
20260501200140 53 265 3.0 12.0 0.00 0.00 0.00 87 1017.6
20260501194639 54 281 8.0 10.0 0.00 0.00 0.00 87 1017.6
20260501194139 53 309 3.0 13.0 0.00 0.00 0.00 88 1017.7
20260501193639 53 314 10.0 13.0 0.00 0.00 0.00 87 1017.7
20260501193139 53 292 4.0 11.0 0.00 0.00 0.00 88 1017.8
20260501192640 53 2 3.0 11.0 0.00 0.00 0.00 88 1017.9
20260501192140 53 2 9.0 11.0 0.00 0.00 0.00 87 1017.9
20260501191139 53 314 3.0 12.0 0.00 0.00 0.00 88 1018.0
20260501190639 53 321 4.0 8.0 0.00 0.00 0.00 87 1018.0
20260501190139 53 350 8.0 10.0 0.00 0.00 0.00 88 1018.0
20260501185639 53 280 4.0 10.0 0.00 0.00 0.00 87 1018.2
20260501185139 53 248 2.0 7.0 0.00 0.00 0.00 88 1018.2
20260501184638 53 44 5.0 7.0 0.00 0.00 0.00 88 1018.1
20260501184138 53 360 6.0 9.0 0.00 0.00 0.00 88 1018.2
20260501182139 53 277 4.0 8.0 0.00 0.00 0.00 87 1018.3
20260501181638 53 10 3.0 7.0 0.00 0.00 0.00 87 1018.3
20260501181138 53 30 3.0 7.0 0.00 0.00 0.00 88 1018.4
20260501180638 53 275 2.0 7.0 0.00 0.00 0.00 88 1018.4
20260501180138 53 292 1.0 7.0 0.00 0.00 0.00 87 1018.4
20260501175138 54 297 3.0 8.0 0.00 0.00 0.00 87 1018.4
20260501174637 54 309 4.0 6.0 0.00 0.00 0.00 87 1018.4
20260501174137 54 121 2.0 6.0 0.00 0.00 0.00 87 1018.4
20260501173638 53 324 4.0 6.0 0.00 0.00 0.00 88 1018.4
20260501173138 53 271 3.0 6.0 0.00 0.00 0.00 88 1018.5
20260501172638 53 330 4.0 7.0 0.00 0.00 0.00 88 1018.5
20260501172137 53 266 5.0 7.0 0.00 0.00 0.00 88 1018.4
20260501171638 53 264 3.0 7.0 0.00 0.00 0.00 87 1018.5
20260501171137 54 276 0.0 7.0 0.00 0.00 0.00 87 1018.4
20260501170637 54 302 3.0 7.0 0.00 0.00 0.00 88 1018.5
20260501170137 54 232 2.0 4.0 0.00 0.00 0.00 88 1018.5
20260501165637 54 259 0.0 3.0 0.00 0.00 0.00 90 1018.5
20260501165137 53 103 0.0 3.0 0.00 0.00 0.00 91 1018.5
20260501164136 53 193 1.0 3.0 0.00 0.00 0.00 91 1018.5